Location: ????????
(55.8351°N, 38.7040°E)
Time: 01:34:29
(UTC+00:00)

Cosmos 2026 Rocket - Pass Details

Date: 14 April 2024
Orbit: 938 x 1001 km, 82.9° (Epoch: 28 May)

Event Time Altitude Azimuth Distance (km) Brightness Sun altitude
Exits shadow 00:49:33 - 189° (S) 3,131 6.2 -12.2°
Reaches altitude 10° 00:50:36 10° 190° (S) 2,738 5.9 -12.1°
Maximum altitude 00:56:55 89° 283° (WNW) 1,003 4.1 -11.4°
Drops below altitude 10° 01:03:21 10° 12° (NNE) 2,784 7.1 -10.7°
Sets 01:05:53 0° 12° (NNE) 3,740 7.8 -10.4°
